Location: Unspecified
(35.6961°N, 0.0000°E)
Time: 03:21:45
(UTC+00:00)

Altair - Pass Details

Date: 20 May 2019
Orbit: 1501 x 1683 km, 47.2° (Epoch: 23 June)

Event Time Altitude Azimuth Distance (km) Brightness Sun altitude
Rises 04:28:31 0° 235° (SW) 4,896 - -5.0°
Exits shadow 04:30:07 - 235° (SW) 4,396 9.2 -4.7°
Reaches altitude 10° 04:31:39 10° 235° (SW) 3,922 9.0 -4.5°
Maximum altitude 04:41:49 86° 325° (NW) 1,688 7.8 -2.6°
Drops below altitude 10° 04:52:00 10° 56° (NE) 3,924 11.7 -0.8°
Sets 04:55:08 0° 57° (ENE) 4,898 12.7 -0.2°
